Cody, WY

9:23 AM MST on February 13, 2016 (GMT -0700)
Yellowstone Regional

Weather History for KCOD - January, 2013

Change the Weather History Date:

Friday, January 25, 2013

  Actual Average Record
Temperature  
Mean Temperature 44 °F -  
Max Temperature 48 °F 35 °F 63 °F (1935)
Min Temperature 41 °F 16 °F -27 °F (1949)
Degree Days  
Heating Degree Days 20    
Moisture  
Dew Point 22 °F    
Average Humidity 41    
Maximum Humidity 49    
Minimum Humidity 34    
Precipitation  
Precipitation 0.00 in - - ()
Sea Level Pressure  
Sea Level Pressure 30.02 in    
Wind  
Wind Speed 16 mph (WSW)    
Max Wind Speed 26 mph    
Max Gust Speed 43 mph    
Visibility 10 miles    
Events      
Averages and records for this station are not official NWS values.
T = Trace of Precipitation, MM = Missing Value Source: NWS Daily Summary

Daily Weather History Graph

Daily Weather History Graph

Search for Another Location

Airport or City:

Trip Planner

Search our weather history database for the weather conditions in past years. The results will help you decide how hot, cold, wet, or windy it might be!

Date:

Astronomy

Jan. 25, 2013 Rise Set
Actual Time 7:41 AM MST 5:15 PM MST
Civil Twilight 7:10 AM MST 5:47 PM MST
Nautical Twilight 6:34 AM MST 6:22 PM MST
Astronomical Twilight 6:00 AM MST 6:57 PM MST
Moon 4:16 PM MST (1/25) 6:23 AM MST (1/25)
Length of Visible Light 10h 37m
Length of Day
9h 34m
Waxing Gibbous, 98% of the Moon is Illuminated
Jan 25
Waxing Gibbous
Jan 26
Full
Feb 3
Last Quarter
Feb 10
New
Feb 17
First Quarter

Hourly Weather History & Observations

Time (MST) Temp. Windchill Dew Point Humidity Pressure Visibility Wind Dir Wind Speed Gust Speed Precip Events Conditions
12:15 AM 41.0 °F 34.7 °F 19.4 °F 42% 30.10 in 10.0 mi WNW 10.4 mph 16.1 mph N/A   Clear
12:35 AM 41.0 °F 37.1 °F 19.4 °F 42% 30.10 in 10.0 mi NW 5.8 mph - N/A   Clear
12:55 AM 41.0 °F 39.0 °F 19.4 °F 42% 30.10 in 10.0 mi NNW 3.5 mph - N/A   Clear
1:15 AM 41.0 °F 35.8 °F 19.4 °F 42% 30.09 in 10.0 mi NNW 8.1 mph - N/A   Clear
1:35 AM 41.0 °F 33.1 °F 19.4 °F 42% 30.09 in 10.0 mi West 15.0 mph 20.7 mph N/A   Clear
1:55 AM 42.8 °F 35.4 °F 19.4 °F 39% 30.08 in 10.0 mi West 15.0 mph 25.3 mph N/A   Clear
2:15 AM 42.8 °F 34.8 °F 19.4 °F 39% 30.07 in 10.0 mi WSW 17.3 mph 32.2 mph N/A   Clear
2:35 AM 42.8 °F 34.5 °F 19.4 °F 39% 30.08 in 10.0 mi WSW 18.4 mph 33.4 mph N/A   Clear
2:55 AM 42.8 °F 34.5 °F 19.4 °F 39% 30.07 in 10.0 mi WSW 18.4 mph 35.7 mph N/A   Clear
3:15 AM 42.8 °F 34.3 °F 19.4 °F 39% 30.06 in 10.0 mi WSW 19.6 mph 40.3 mph N/A   Clear
3:35 AM 42.8 °F 33.3 °F 19.4 °F 39% 30.06 in 10.0 mi WSW 24.2 mph 38.0 mph N/A   Clear
3:55 AM 42.8 °F 33.5 °F 19.4 °F 39% 30.04 in 10.0 mi WSW 23.0 mph 35.7 mph N/A   Clear
4:15 AM 42.8 °F 33.3 °F 19.4 °F 39% 30.05 in 10.0 mi SW 24.2 mph 35.7 mph N/A   Clear
4:35 AM 42.8 °F 34.3 °F 21.2 °F 42% 30.05 in 10.0 mi WSW 19.6 mph 34.5 mph N/A   Clear
4:55 AM 42.8 °F 34.3 °F 21.2 °F 42% 30.05 in 10.0 mi WSW 19.6 mph 36.8 mph N/A   Clear
5:15 AM 42.8 °F 32.9 °F 21.2 °F 42% 30.05 in 10.0 mi WSW 26.5 mph 39.1 mph N/A   Clear
5:35 AM 42.8 °F 34.3 °F 21.2 °F 42% 30.05 in 10.0 mi WSW 19.6 mph 42.6 mph N/A   Clear
5:55 AM 42.8 °F 34.0 °F 21.2 °F 42% 30.05 in 10.0 mi WSW 20.7 mph 36.8 mph N/A   Clear
6:35 AM 42.8 °F 33.8 °F 21.2 °F 42% 30.04 in 10.0 mi SW 21.9 mph 32.2 mph N/A   Clear
6:55 AM 42.8 °F 35.8 °F 21.2 °F 42% 30.05 in 10.0 mi WSW 13.8 mph 34.5 mph N/A   Clear
7:15 AM 42.8 °F 33.8 °F 21.2 °F 42% 30.05 in 10.0 mi WSW 21.9 mph 35.7 mph N/A   Clear
7:35 AM 42.8 °F 33.3 °F 21.2 °F 42% 30.05 in 10.0 mi WSW 24.2 mph 33.4 mph N/A   Clear
7:55 AM 42.8 °F 33.1 °F 21.2 °F 42% 30.06 in 10.0 mi WSW 25.3 mph 36.8 mph N/A   Clear
8:15 AM 44.6 °F 36.4 °F 21.2 °F 39% 30.06 in 10.0 mi WSW 20.7 mph 31.1 mph N/A   Clear
8:35 AM 44.6 °F 35.7 °F 21.2 °F 39% 30.06 in 10.0 mi WSW 24.2 mph 38.0 mph N/A   Clear
8:55 AM 44.6 °F 35.7 °F 21.2 °F 39% 30.06 in 10.0 mi WSW 24.2 mph 31.1 mph N/A   Clear
9:15 AM 44.6 °F 37.2 °F 21.2 °F 39% 30.07 in 10.0 mi SW 17.3 mph 26.5 mph N/A   Clear
9:35 AM 44.6 °F 36.9 °F 21.2 °F 39% 30.06 in 10.0 mi SW 18.4 mph 31.1 mph N/A   Clear
9:55 AM 44.6 °F 36.4 °F 21.2 °F 39% 30.06 in 10.0 mi WSW 20.7 mph 31.1 mph N/A   Clear
10:15 AM 46.4 °F 38.5 °F 21.2 °F 37% 30.07 in 10.0 mi WSW 21.9 mph 36.8 mph N/A   Clear
10:35 AM 46.4 °F 39.5 °F 24.8 °F 43% 30.06 in 10.0 mi WSW 17.3 mph 28.8 mph N/A   Clear
10:55 AM 48.2 °F - 23.0 °F 37% 30.06 in 10.0 mi WSW 20.7 mph 29.9 mph N/A   Clear
11:15 AM 48.2 °F - 21.2 °F 34% 30.06 in 10.0 mi WSW 21.9 mph 34.5 mph N/A   Clear
11:35 AM 48.2 °F - 23.0 °F 37% 30.06 in 10.0 mi WSW 17.3 mph 26.5 mph N/A   Clear
11:55 AM 48.2 °F - 23.0 °F 37% 30.05 in 10.0 mi WSW 18.4 mph 31.1 mph N/A   Clear
12:15 PM 48.2 °F - 23.0 °F 37% 30.05 in 10.0 mi WSW 18.4 mph 29.9 mph N/A   Clear
12:35 PM 48.2 °F - 23.0 °F 37% 30.04 in 10.0 mi WSW 17.3 mph 25.3 mph N/A   Clear
1:15 PM 48.2 °F - 24.8 °F 40% 30.02 in 10.0 mi West 18.4 mph 33.4 mph N/A   Clear
1:35 PM 48.2 °F - 24.8 °F 40% 30.01 in 10.0 mi WSW 19.6 mph 32.2 mph N/A   Clear
1:55 PM 48.2 °F - 24.8 °F 40% 29.99 in 10.0 mi WSW 15.0 mph 31.1 mph N/A   Clear
2:15 PM 48.2 °F - 24.8 °F 40% 29.98 in 10.0 mi WSW 23.0 mph 29.9 mph N/A   Clear
2:35 PM 48.2 °F - 24.8 °F 40% 29.98 in 10.0 mi WSW 12.7 mph 28.8 mph N/A   Clear
3:15 PM 48.2 °F - 23.0 °F 37% 29.99 in 10.0 mi WSW 16.1 mph 29.9 mph N/A   Clear
3:36 PM 48.2 °F - 24.8 °F 40% 29.99 in 10.0 mi West 15.0 mph 27.6 mph N/A   Clear
3:55 PM 48.2 °F - 24.8 °F 40% 29.99 in 10.0 mi WSW 16.1 mph 28.8 mph N/A   Clear
4:15 PM 48.2 °F - 23.0 °F 37% 29.99 in 10.0 mi WSW 19.6 mph 29.9 mph N/A   Clear
4:36 PM 46.4 °F 39.2 °F 24.8 °F 43% 29.99 in 10.0 mi WSW 18.4 mph 31.1 mph N/A   Partly Cloudy
4:55 PM 46.4 °F 41.9 °F 23.0 °F 40% 29.99 in 10.0 mi WSW 9.2 mph 26.5 mph N/A   Clear
5:15 PM 46.4 °F 40.7 °F 23.0 °F 40% 29.99 in 10.0 mi WSW 12.7 mph 23.0 mph N/A   Clear
5:35 PM 46.4 °F 40.7 °F 23.0 °F 40% 29.99 in 10.0 mi SW 12.7 mph 16.1 mph N/A   Mostly Cloudy
5:55 PM 46.4 °F 39.5 °F 21.2 °F 37% 29.99 in 10.0 mi WSW 17.3 mph 28.8 mph N/A   Mostly Cloudy
6:35 PM 46.4 °F 39.5 °F 21.2 °F 37% 29.99 in 10.0 mi WSW 17.3 mph 24.2 mph N/A   Overcast
6:55 PM 44.6 °F 37.8 °F 23.0 °F 43% 29.98 in 10.0 mi West 15.0 mph 21.9 mph N/A   Overcast
7:16 PM 44.6 °F 38.4 °F 21.2 °F 39% 29.98 in 10.0 mi West 12.7 mph 24.2 mph N/A   Overcast
7:35 PM 44.6 °F 38.4 °F 23.0 °F 43% 29.97 in 10.0 mi West 12.7 mph 24.2 mph N/A   Overcast
7:55 PM 44.6 °F 38.8 °F 23.0 °F 43% 29.96 in 10.0 mi West 11.5 mph 25.3 mph N/A   Overcast
8:15 PM 44.6 °F 37.8 °F 23.0 °F 43% 29.96 in 10.0 mi WSW 15.0 mph 29.9 mph N/A   Mostly Cloudy
8:35 PM 44.6 °F 37.8 °F 23.0 °F 43% 29.95 in 10.0 mi SW 15.0 mph 28.8 mph N/A   Partly Cloudy
8:55 PM 44.6 °F 38.1 °F 24.8 °F 46% 29.95 in 10.0 mi West 13.8 mph 27.6 mph N/A   Clear
9:15 PM 44.6 °F 38.4 °F 24.8 °F 46% 29.96 in 10.0 mi West 12.7 mph 26.5 mph N/A   Clear
9:35 PM 44.6 °F 39.2 °F 24.8 °F 46% 29.95 in 10.0 mi West 10.4 mph 19.6 mph N/A   Clear
9:55 PM 44.6 °F 39.2 °F 24.8 °F 46% 29.95 in 10.0 mi West 10.4 mph 20.7 mph N/A   Clear
10:15 PM 44.6 °F 39.2 °F 24.8 °F 46% 29.95 in 10.0 mi WSW 10.4 mph 24.2 mph N/A   Clear
10:35 PM 44.6 °F 37.4 °F 24.8 °F 46% 29.93 in 10.0 mi WSW 16.1 mph 20.7 mph N/A   Clear
10:55 PM 42.8 °F 36.2 °F 24.8 °F 49% 29.93 in 10.0 mi WSW 12.7 mph 19.6 mph N/A   Clear
11:15 PM 44.6 °F 37.4 °F 24.8 °F 46% 29.93 in 10.0 mi West 16.1 mph 29.9 mph N/A   Clear
11:35 PM 44.6 °F 38.8 °F 24.8 °F 46% 29.93 in 10.0 mi WSW 11.5 mph 20.7 mph N/A   Clear
11:55 PM 42.8 °F 36.2 °F 24.8 °F 49% 29.93 in 10.0 mi SW 12.7 mph - N/A   Clear